This demonstration page uses our WeatherBlox Daily Observations layout. Learn more.

Left ArrowRight Arrow

34.02893, -84.19858

Hourly Observations for August 12, 2022

Temp ( °F °C ) Dew Point ( °F °C ) Humidity (%) Winds ( mph kmh ) Pressure ( in mb ) Visibility ( mi km ) Precip ( " mm )
12:53 am 00:53 Clear 72 22.2 71 21.7 97 97 WSW 5 7 30.01 1016 10 16 0.00 0.00
1:53 am 01:53 Clear 71 21.7 70 21.1 96 96 SW 3 6 30.01 1016 10 16 0.00 0.00
2:53 am 02:53 Clear 70 21.1 70 21.1 100 100 SSW 3 6 30.00 1016 9 14 0.00 0.00
3:53 am 03:53 Mostly Cloudy 71 21.7 70 21.1 96 96 SW 5 7 29.99 1016 10 16 0.00 0.00
4:53 am 04:53 Cloudy 71 21.7 71 21.7 100 100 SSW 6 9 29.98 1015 10 16 0.00 0.00
5:01 am 05:01 Cloudy 71 21.7 71 21.7 100 100 SSW 5 7 30.01 1016 10 16 0.00 0.00
5:53 am 05:53 Cloudy 72 22.2 71 21.7 97 97 SSW 6 9 29.98 1015 10 16 0.00 0.00
6:53 am 06:53 Cloudy 72 22.2 71 21.7 97 97 SW 7 11 30.00 1016 9 14 0.00 0.00
7:32 am 07:32 Cloudy with Rain 72 22.2 71 21.7 97 97 WSW 7 11 30.04 1017 2 2 0.04 1.02
7:43 am 07:43 Cloudy with Light Rain 72 22.2 71 21.7 97 97 WSW 7 11 30.04 1017 3 5 0.06 1.52
7:53 am 07:53 Cloudy 72 22.2 71 21.7 97 97 WSW 7 11 30.02 1017 8 13 0.06 1.52
8:53 am 08:53 Cloudy 73 22.8 71 21.7 94 94 WSW 7 11 30.02 1017 8 13 0.00 0.00
9:53 am 09:53 Cloudy 74 23.3 72 22.2 94 94 WSW 5 7 30.03 1017 9 14 0.00 0.00
10:53 am 10:53 Cloudy 75 23.9 72 22.2 90 90 SW 3 6 30.04 1017 10 16 0.00 0.00
11:00 am 11:00 Cloudy 75 23.9 72 22.2 90 90 VRB 3 6 30.04 1017 10 16 0.00 0.00
11:07 am 11:07 Cloudy 76 24.4 72 22.2 88 88 SW 6 9 30.04 1017 10 16 0.00 0.00
11:53 am 11:53 Cloudy 79 26.1 73 22.8 82 82 VRB 3 6 30.02 1017 10 16 0.00 0.00
12:00 pm 12:00 Partly Cloudy 80 26.7 73 22.8 79 79 SSW 7 11 30.02 1017 10 16 0.00 0.00
12:09 pm 12:09 Mostly Cloudy 80 26.7 74 23.3 82 82 VRB 5 7 30.02 1017 10 16 0.00 0.00
12:23 pm 12:23 Partly Cloudy 81 27.2 73 22.8 77 77 W 6 9 30.01 1016 10 16 0.00 0.00
12:53 pm 12:53 Mostly Cloudy 81 27.2 72 22.2 74 74 NW 7 11 30.00 1016 10 16 0.00 0.00
1:01 pm 13:01 Partly Cloudy 83 28.3 73 22.8 72 72 W 6 9 29.99 1015 10 16 0.00 0.00
1:53 pm 13:53 Mostly Sunny 85 29.4 70 21.1 61 61 WNW 5 7 29.97 1015 10 16 0.00 0.00
2:53 pm 14:53 Mostly Sunny 87 30.6 71 21.7 59 59 NW 6 9 29.96 1015 10 16 0.00 0.00
3:01 pm 15:01 Partly Cloudy 86 30 70 21.1 59 59 NNW 8 13 29.96 1015 10 16 0.00 0.00
3:53 pm 15:53 Sunny 88 31.1 69 20.6 54 54 VRB 7 11 29.94 1014 10 16 0.00 0.00
4:53 pm 16:53 Sunny 87 30.6 64 17.8 46 46 WNW 9 15 29.94 1014 10 16 0.00 0.00
5:53 pm 17:53 Sunny 87 30.6 67 19.4 51 51 NNW 12 19 29.93 1014 10 16 0.00 0.00
6:53 pm 18:53 Sunny 84 28.9 67 19.4 57 57 NW 9 15 29.94 1014 10 16 0.00 0.00
7:53 pm 19:53 Sunny 82 27.8 67 19.4 60 60 NNW 7 11 29.94 1014 10 16 0.00 0.00
8:53 pm 20:53 Clear 79 26.1 67 19.4 67 67 NNW 6 9 29.96 1015 10 16 0.00 0.00
9:53 pm 21:53 Clear 77 25 67 19.4 71 71 NNW 6 9 29.97 1015 10 16 0.00 0.00
10:53 pm 22:53 Clear 75 23.9 66 18.9 74 74 NNW 7 11 29.98 1015 10 16 0.00 0.00
11:53 pm 23:53 Clear 71 21.7 67 19.4 87 87 Calm 29.99 1016 10 16 0.00 0.00

Powered by AerisWeather